Back to catalog

STARLINK-11710

AliveCommunicationsVLEO
NORAD 64244·PAYLOAD·🇺🇸 United States

Launched Jun 3, 2025 from Cape Canaveral Space Force Station

Loading…

Next Passes (next 24 hours)

TLE

FreshSource: CelesTrak SupGP

Epoch: Sep 15, 2026, 02:48 UTC

1 64244C 25119M   26258.11715278  .00067248  00000+0  52220-3 0  2581
2 64244  43.0004 147.5145 0001629 267.9644 120.4109 15.70810504    15

Track STARLINK-11710 in real time with AllMySat

Download on the App Store